Overview Statistics Trail Chart Weather Telemetry Raw packets
 

This is the latest recevied weather packets stored in our database for station/object NC4M. If no packets are shown the sender has not sent any weather packets the latest 10 day(s).

<< 1 2 3 4 5 6 >>
Time Temp. Humidity Pressure Rain* Wind** Luminosity Snow
1788564407 32.78° C 55% 1013.7 hPa 0 mm - 30 W/m² -
1788564102 32.78° C 54% 1013.9 hPa 0 mm - 32 W/m² -
1788563798 32.78° C 54% 1013.9 hPa 0 mm - 33 W/m² -
1788563493 33.33° C 54% 1013.8 hPa 0 mm - 34 W/m² -
1788563192 33.33° C 54% 1013.7 hPa 0 mm - 36 W/m² -
1788562888 33.33° C 54% 1013.7 hPa 0 mm - 40 W/m² -
1788562585 33.89° C 55% 1014.2 hPa 0 mm - 40 W/m² -
1788562280 33.89° C 51% 1013.8 hPa 0 mm - 45 W/m² -
1788561975 34.44° C 51% 1014.1 hPa 0 mm - 49 W/m² -
1788561670 34.44° C 51% 1014.2 hPa 0 mm - 58 W/m² -
1788561369 34.44° C 49% 1013.8 hPa 0 mm - 61 W/m² -
1788561064 34.44° C 50% 1014.3 hPa 0 mm - 143 W/m² -
1788560760 35° C 50% 1014.1 hPa 0 mm - 72 W/m² -
1788560456 35° C 48% 1014.3 hPa 0 mm - 81 W/m² -
1788560150 35° C 48% 1014.2 hPa 0 mm - 104 W/m² -
1788559850 35.56° C 46% 1013.9 hPa 0 mm - 74 W/m² -
1788559550 36.11° C 45% 1014.1 hPa 0 mm - 88 W/m² -
1788559246 36.67° C 45% 1014.2 hPa 0 mm - 260 W/m² -
1788558946 36.67° C 44% 1014.2 hPa 0 mm - 350 W/m² -
1788558642 36.67° C 43% 1014.1 hPa 0 mm - 347 W/m² -
1788558337 37.22° C 42% 1014.3 hPa 0 mm - 251 W/m² -
1788558032 37.22° C 42% 1014.3 hPa 0 mm - 406 W/m² -
1788557730 37.78° C 41% 1014.3 hPa 0 mm - 433 W/m² -
1788557427 37.78° C 41% 1014.4 hPa 0 mm - 452 W/m² -
1788557127 37.78° C 40% 1014.4 hPa 0 mm - 464 W/m² -

* Rain latest hour (hover to see other rain measurements)
** Current wind speed in m/s (hover to see current wind gust speed)